Location: Cieszkowy
(50.3290°N, 20.5336°E)
Time: 13:56:30
(UTC+00:00)

ALOS - Pass Details

Date: 15 June 2024
Orbit: 672 x 676 km, 98.0° (Epoch: 15 July)

Event Time Altitude Azimuth Distance (km) Brightness Sun altitude
Rises 01:27:10 0° 15° (NNE) 3,038 7.0 -7.4°
Reaches altitude 10° 01:29:25 10° 17° (NNE) 2,119 6.1 -7.2°
Maximum altitude 01:34:03 77° 104° (ESE) 697 2.4 -6.8°
Drops below altitude 10° 01:38:39 10° 190° (S) 2,100 4.3 -6.3°
Enters shadow 01:40:01 - 191° (SSW) 2,657 4.8 -6.1°
